{"data":{"norad_id":58694,"intl_designator":"2024-001A","name":"XPOSAT","alt_names":[],"object_type":"PAYLOAD","status":"ACTIVE","operator":null,"country":"IND","launch_date":"2024-01-01","launch_site_code":"SRILR","launch_vehicle":null,"mission":null,"orbit_class":"UNKNOWN","rcs_meters":null,"size_class":null,"mass_kg":null,"dimensions":null,"purposes":[],"wikipedia_slug":null,"has_3d_model":false,"image_url":null,"decayed_at":null,"tle_current":{"epoch":"2026-07-09T20:20:06.983520Z","epoch_age_seconds":6524628,"freshness":"OLD","line1":"1 58694U 24001A   26190.84730305  .00001398  00000+0  97713-4 0  9998","line2":"2 58694   5.9881  25.1227 0008638  85.4557 274.6557 14.79335705136384","mean_motion":14.79335705,"eccentricity":0.0008638,"inclination_deg":5.9881,"raan_deg":25.1227,"arg_perigee_deg":85.4557,"mean_anomaly_deg":274.6557,"bstar":9.7713e-5,"rev_number":13638,"period_min":97.340988602719,"perigee_km":625.36691899127,"apogee_km":637.47663273245,"semimajor_km":7009.5587758619,"source":"CELESTRAK","updated_at":"2026-08-08T09:00:22.841148Z"}}}